Regional Weather Roundup
Issued by NWS

Home | Current Version | Previous Version | Graphics & Text | Print | Product List | Glossary On
Versions: 1 2 3 4 5 6 7 8 9 10 11 12 13 14 15 16 17 18 19 20 21 22 23 24 25 26 27 28 29 30 31 32 33 34 35 36 37 38 39 40 41 42 43 44 45 46 47 48 49 50
197
ASUS44 KLIX 180105
RWRLA
LOUISIANA WEATHER ROUNDUP
NATIONAL WEATHER SERVICE NEW ORLEANS LA
800 PM CDT WED SEP 17 2014

NOTE: "FAIR" INDICATES FEW OR NO CLOUDS BELOW 12,000 FEET WITH NO
      SIGNIFICANT WEATHER AND/OR OBSTRUCTIONS TO VISIBILITY.
      SKY/WX - SKY CONDITION AND SIGNIFICANT WEATHER.
      TMP - AIR TEMPERATURE.    DP   - DEWPOINT TEMPERATURE.
      RH  - RELATIVE HUMIDITY.  PRES - PRESSURE.
      HX  - HEAT INDEX.         WCI  - WIND CHILL INDEX.

*  THESE STATIONS ARE NOT NWS OR FAA STATIONS AND ARE NOT UNDER
   NWS QUALITY CONTROL.

LAZ040-048-061>063-065-066-069-180200-
SOUTHEAST LOUISIANA

CITY           SKY/WX    TMP DP  RH WIND       PRES   REMARKS
N.O. AUDUBON     N/A     81  76  84 MISG        N/A
N.O. INTL ARPT MOCLDY    82  74  76 S6        29.91R
N.O. LAKEFRONT MOCLDY    82  74  76 S7        29.92R
N.O. DOWNTOWN* FAIR      84  72  65 S5        29.92R
SLIDELL        MOCLDY    78  74  87 CALM      29.91R
BATON ROUGE    PTCLDY    78  75  90 CALM      29.91S
BOOTHVILLE     PTCLDY    81  74  79 CALM      29.92R
BELLE CHASSE   MOCLDY    79  72  79 CALM      29.91S
BOGALUSA*      FAIR      80  73  78 CALM      29.92S
GALLIANO*      NOT AVBL
NEW ROADS*     FAIR      78  74  85 CALM      29.91S
GONZALES*      FAIR      77  77 100 CALM      29.91R
HAMMOND*       MOCLDY    79  73  83 CALM      29.93S
HOUMA*         PTCLDY   N/A N/A N/A CALM      29.91F
PORT FOURCHON* CLEAR     82  73  74 W6        29.95S

$$

LAZ041-044-053-054-180200-
SOUTHWEST LOUISIANA

CITY           SKY/WX    TMP DP  RH WIND       PRES   REMARKS
LAKE CHARLES   CLOUDY    77  75  93 CALM      29.91S
LAFAYETTE      PTCLDY    80  76  87 SW6       29.92R
PATTERSON      MOCLDY    79  73  83 SE6       29.95S
SALT POINT       N/A     84  75  74 VRB3      29.91R
NEW IBERIA     CLEAR     79  75  87 W3        29.93R
CHENAULT AIRPK MOCLDY    77  75  94 S6        29.92R

$$

LAZ027-028-180200-
CENTRAL LOUISIANA

CITY           SKY/WX    TMP DP  RH WIND       PRES   REMARKS
FORT POLK      CLEAR     77  72  84 W3        29.92R
ALEXANDRIA INT PTCLDY    80  73  79 CALM      29.89R
ALEXANDRIA     PTCLDY    77  74  90 CALM      29.91S

$$

LAZ001-002-180200-
NORTHWEST LOUISIANA

CITY           SKY/WX    TMP DP  RH WIND       PRES   REMARKS
SHREVEPORT     MOCLDY    83  71  67 SE6       29.89R
BARKSDALE AFB  NOT AVBL
DTN SHREVEPORT PTCLDY    81  71  71 SE5       29.89R

$$

LAZ014-016-180200-
NORTHEAST LOUISIANA

CITY           SKY/WX    TMP DP  RH WIND       PRES   REMARKS
MONROE         PTCLDY    77  73  87 CALM      29.90S
TALLULAH       PTCLDY    75  71  87 CALM      29.90S

$$




USA.gov is the U.S. government's official web portal to all federal, state and local government web resources and services.